Flag for U.S.A. Weather past 2 weeks in Mobile, Alabama, U.S.A.

Now
72 °F

Passing clouds.


Feels Like: 70 °F
Forecast: 69 / 80 °F
Wind: 7 mph from South

Location: Mobile Downtown Airport

Current Time: Apr 19, 2015 at 3:00:45 AM

Latest Report: Apr 19, 2015 at 1:53 AM


Visibility: 10 mi

Pressure: 29.81 "Hg

Humidity: 87%

Dew point: 68 °F

Location of MobileLocation

Historic Weather in Mobile — Graph

°F

Mobile temperature yesterday

Maximum temperature yesterday: 74 °F (at 2:53 PM)
Minimum temperature yesterday: 67 °F (at 6:53 AM)
Average temperature yesterday: 71 °F

Past Weeks' High & Low Weather Summary

 TemperatureHumidityPressure
High83 °F (Apr 10, 2:53 PM)97% (Apr 8, 5:53 AM)30.23 "Hg (Apr 8, 5:53 AM)
Low52 °F (Apr 5, 3:53 AM)30% (Apr 4, 4:53 PM)29.81 "Hg (Apr 19, 12:53 AM)
Average71 °F85%30.07 "Hg
* Reported Apr 4 1:53 AM — Apr 19 1:53 AM, Mobile, Weather by CustomWeather, © 2015

Note: Actual official high and low records may vary slightly from our data, if they occured in-between our weather recording intervals... More about our weather records

Advertising

Mobile weather history for previous 24 hours

 ConditionsComfort  
Time TempWeatherWind HumidityBarometerVisibility
1:53 AM
Sun, Apr 19
72 °FPassing clouds.7 mph87%29.81 "Hg10 mi
12:53 AM71 °FPassing clouds.7 mph87%29.81 "Hg10 mi
11:53 PM
Sat, Apr 18
72 °FClear.5 mph87%29.83 "Hg10 mi
10:53 PM71 °FPassing clouds.5 mph90%29.88 "Hg10 mi
9:53 PM72 °FLight rain. Passing clouds.7 mph91%29.92 "Hg8 mi
8:53 PM72 °FPassing clouds.6 mph91%29.90 "Hg10 mi
7:53 PM72 °FLight rain. Scattered clouds.6 mph93%29.89 "Hg9 mi
6:53 PM73 °FMore clouds than sun.8 mph90%29.89 "Hg10 mi
5:53 PM74 °FScattered clouds.5 mph88%29.89 "Hg10 mi
4:53 PM74 °FMostly cloudy.6 mph88%29.89 "Hg10 mi
3:53 PM74 °FScattered clouds.7 mph88%29.87 "Hg10 mi
2:53 PM74 °FPartly sunny.10 mph85%29.87 "Hg10 mi
1:53 PM73 °FMostly cloudy.8 mph94%29.92 "Hg10 mi
12:53 PM71 °FLight rain. Mostly cloudy.5 mph90%29.93 "Hg10 mi
11:53 AM70 °FMostly cloudy.3 mph90%29.96 "Hg10 mi
10:53 AM69 °FLight rain. Mostly cloudy.No wind93%30.00 "Hg10 mi
9:53 AM69 °FLow clouds.No wind90%30.01 "Hg10 mi
8:53 AM68 °FLight rain. Low clouds.5 mph93%29.98 "Hg10 mi
7:53 AM67 °FLight rain. Low clouds.8 mph93%29.95 "Hg9 mi
6:53 AM67 °FLight rain. Low clouds.7 mph93%29.95 "Hg10 mi
5:53 AM68 °FLow clouds.7 mph90%29.95 "Hg10 mi
4:53 AM68 °FLow clouds.5 mph93%29.93 "Hg10 mi
3:53 AM69 °FLow clouds.No wind90%29.93 "Hg10 mi
Weather by CustomWeather, © 2015

See weather overviewHow to use our weather pages